Left ArrowRight Arrow

Hourly Observations for June 6, 2020

Temp ( °F °C ) Dew Point ( °F °C ) Humidity (%) Winds ( mph kmh ) Pressure ( in mb ) Visibility ( mi km ) Precip ( " mm )
12:03 am 00:03 Mostly Cloudy with Rain 71 21.7 69 20.6 94 94 Calm 29.84 1010 5 8 0.01 0.25
12:51 am 00:51 Mostly Cloudy with Light Rain 71 21.7 70 21.1 96 96 S 5 7 29.82 1010 8 13 0.06 1.52
1:36 am 01:36 Mostly Cloudy with Mist and Fog 71 21.7 69 20.6 94 94 WSW 3 6 29.81 1009 5 8 0.00 0.00
1:51 am 01:51 Cloudy with Mist and Fog 71 21.7 69 20.6 94 94 S 3 6 29.80 1009 4 6 0.00 0.00
2:51 am 02:51 Cloudy with Mist and Fog 71 21.7 70 21.1 96 96 Calm 29.79 1009 3 5 0.04 1.02
3:51 am 03:51 Cloudy with Mist and Fog 71 21.7 70 21.1 96 96 SSE 3 6 29.78 1008 4 6 0.00 0.00
4:20 am 04:20 Cloudy with Mist and Fog 71 21.7 70 21.1 96 96 SSW 3 6 29.78 1008 4 6 0.00 0.00
4:51 am 04:51 Cloudy with Mist and Fog 71 21.7 70 21.1 96 96 Calm 29.78 1008 4 6 0.00 0.00
5:08 am 05:08 Mostly Cloudy with Mist and Fog 71 21.7 70 21.1 96 96 S 3 6 29.78 1008 4 6 0.00 0.00
5:35 am 05:35 Partly Cloudy with Mist and Fog 70 21.1 69 20.6 97 97 S 3 6 29.78 1008 4 6 0.00 0.00
5:51 am 05:51 Mostly Cloudy with Mist and Fog 70 21.1 69 20.6 97 97 Calm 29.78 1008 4 6 0.00 0.00
6:00 am 06:00 Partly Cloudy with Mist and Fog 70 21.1 69 20.6 97 97 SSE 5 7 29.78 1008 6 10 0.00 0.00
6:51 am 06:51 Partly Cloudy 71 21.7 71 21.7 100 100 Calm 29.78 1008 10 16 0.00 0.00
6:58 am 06:58 Mostly Cloudy with Mist and Fog 71 21.7 70 21.1 96 96 Calm 29.78 1008 6 10 0.00 0.00
7:51 am 07:51 Mostly Cloudy with Mist and Fog 73 22.8 70 21.1 90 90 W 7 11 29.78 1008 6 10 0.00 0.00
8:02 am 08:02 Partly Cloudy 74 23.3 71 21.7 91 91 Calm 29.78 1008 10 16 0.00 0.00
8:51 am 08:51 Partly Cloudy 75 23.9 70 21.1 84 84 WSW 3 6 29.78 1009 10 16 0.00 0.00
9:51 am 09:51 Mostly Sunny 79 26.1 71 21.7 77 77 W 7 11 29.77 1008 10 16 0.00 0.00
10:51 am 10:51 Mostly Sunny 81 27.2 71 21.7 72 72 WNW 8 13 29.76 1008 10 16 0.00 0.00
11:51 am 11:51 Sunny 84 28.9 69 20.6 61 61 SSW 8 13 29.74 1007 10 16 0.00 0.00
12:51 pm 12:51 Sunny 87 30.6 66 18.9 50 50 SW 10 17 29.71 1006 10 16 0.00 0.00
1:51 pm 13:51 Mostly Sunny 87 30.6 69 20.6 55 55 SW 14 22 29.68 1005 10 16 0.00 0.00
2:38 pm 14:38 Cloudy with Rain 80 26.7 70 21.1 71 71 W 18 30 29.67 1005 2 3 0.05 1.27
2:51 pm 14:51 Partly Cloudy with Nearby Thunderstorms 82 27.8 71 21.7 69 69 WSW 8 13 29.66 1005 10 16 0.14 3.56
3:12 pm 15:12 Sunny 84 28.9 73 22.8 70 70 SW 14 22 29.66 1004 10 16 0.00 0.00
3:51 pm 15:51 Mostly Cloudy 84 28.9 62 16.7 48 48 NW 14 22 29.66 1004 10 16 0.00 0.00
4:51 pm 16:51 Cloudy 85 29.4 59 15 42 42 NNW 9 15 29.67 1005 10 16 0.00 0.00
5:51 pm 17:51 Mostly Sunny 86 30 57 13.9 37 37 NW 15 24 29.67 1005 10 16 0.00 0.00
6:51 pm 18:51 Sunny 83 28.3 47 8.3 28 28 NW 14 22 29.70 1006 10 16 0.00 0.00
7:51 pm 19:51 Sunny 81 27.2 47 8.3 30 30 NNW 13 20 29.72 1006 10 16 0.00 0.00
8:51 pm 20:51 Clear 79 26.1 47 8.3 32 32 NNW 16 26 29.75 1007 10 16 0.00 0.00
9:51 pm 21:51 Clear 75 23.9 44 6.7 33 33 NNW 9 15 29.77 1008 10 16 0.00 0.00
10:51 pm 22:51 Clear 72 22.2 45 7.2 38 38 NNW 7 11 29.78 1009 10 16 0.00 0.00
11:51 pm 23:51 Clear 70 21.1 46 7.8 42 42 NNW 6 9 29.79 1009 10 16 0.00 0.00

Powered by Vaisala Xweather